This is the latest recevied weather packets stored in our database for station/object N6RDS. If no packets are shown the sender has not sent any weather packets the latest 10 day(s).
| Time | Temp. | Humidity | Pressure | Rain* | Wind** | Luminosity | Snow |
|---|---|---|---|---|---|---|---|
| 1778015922 | 3.89° C | 76% | 1020.2 hPa | 0 mm | - | 22 W/m² | - |
| 1778015620 | 4.44° C | 72% | 1020.2 hPa | 0 mm | - | 17 W/m² | - |
| 1778015316 | 5° C | 69% | 1020 hPa | 0 mm | - | 16 W/m² | - |
| 1778015013 | 5.56° C | 65% | 1019.9 hPa | 0 mm | - | 16 W/m² | - |
| 1778014709 | 5.56° C | 61% | 1019.7 hPa | 0 mm | - | 17 W/m² | - |
| 1778014408 | 5.56° C | 61% | 1019.9 hPa | 0 mm | - | 21 W/m² | - |
| 1778014104 | 6.11° C | 59% | 1019.6 hPa | 0 mm | - | 19 W/m² | - |
| 1778013803 | 6.11° C | 58% | 1019.9 hPa | 0 mm | - | 18 W/m² | - |
| 1778013500 | 6.67° C | 58% | 1019.7 hPa | 0 mm | - | 17 W/m² | - |
| 1778013196 | 7.22° C | 58% | 1019.4 hPa | 0 mm | - | 19 W/m² | - |
| 1778012892 | 7.78° C | 56% | 1019.4 hPa | 0 mm | - | 22 W/m² | - |
| 1778012589 | 8.89° C | 54% | 1019.4 hPa | 0 mm | - | 28 W/m² | - |
| 1778012285 | 9.44° C | 56% | 1019.2 hPa | 0 mm | - | 33 W/m² | - |
| 1778011983 | 10° C | 52% | 1018.9 hPa | 0 mm | - | 45 W/m² | - |
| 1778011681 | 10° C | 52% | 1019.2 hPa | 0 mm | - | 44 W/m² | - |
| 1778011377 | 10° C | 51% | 1019 hPa | 0 mm | - | 53 W/m² | - |
| 1778011073 | 10° C | 51% | 1018.9 hPa | 0 mm | - | 74 W/m² | - |
| 1778010771 | 10° C | 50% | 1018.8 hPa | 0 mm | - | 84 W/m² | - |
| 1778010467 | 10.56° C | 48% | 1019 hPa | 0 mm | - | 103 W/m² | - |
| 1778010164 | 10.56° C | 47% | 1018.8 hPa | 0 mm | - | 118 W/m² | - |
| 1778009860 | 11.11° C | 48% | 1018.9 hPa | 0 mm | - | 117 W/m² | - |
| 1778009557 | 11.67° C | 47% | 1018.9 hPa | 0 mm | - | 138 W/m² | - |
| 1778009256 | 11.11° C | 48% | 1019 hPa | 0 mm | - | 186 W/m² | - |
| 1778008953 | 11.11° C | 48% | 1019 hPa | 0 mm | - | 203 W/m² | - |
| 1778008651 | 12.22° C | 47% | 1019.1 hPa | 0 mm | - | 227 W/m² | - |
* Rain latest hour (hover to see other rain measurements)
** Current wind speed in m/s (hover to see current wind gust speed)